Location: Street
(51.1247°N, 2.7429°W)
Time: 06:28:26
(UTC+00:00)

S-56A Canister/Altair - All Passes

Search period start: 27 November 2020 00:00
Search period end: 07 December 2020 00:00
Orbit: 633 x 2499 km, 38.9° (Epoch: 26 November)

Date Brightness Start Highest point End Pass type
(mag) Time Alt. Az. Time Alt. Az. Time Alt. Az.
27 Nov - 01:09:05 10° WSW 01:11:55 14° SSW 01:14:27 10° S night (unlit)
27 Nov - 18:24:21 10° S 18:29:54 15° SSE 18:34:36 10° ESE visible
27 Nov - 20:25:29 10° SW 20:33:31 28° SSE 20:39:24 10° ESE visible
27 Nov - 22:29:56 10° WSW 22:36:53 30° S 22:41:57 10° SE visible
28 Nov - 00:35:36 10° WSW 00:39:28 17° SSW 00:42:44 10° S night (unlit)
28 Nov - 17:51:38 10° S 17:57:03 14° SSE 18:01:42 10° ESE visible
28 Nov - 19:52:11 10° SW 20:00:43 28° SSE 20:07:00 10° ESE visible
28 Nov - 21:56:33 10° WSW 22:04:14 32° S 22:09:43 10° ESE visible
29 Nov - 00:02:10 10° WSW 00:06:59 20° SSW 00:10:52 10° SSE night (unlit)
29 Nov - 17:19:03 10° S 17:24:08 14° SE 17:28:37 10° ESE visible
29 Nov - 19:18:52 10° SSW 19:27:53 28° SSE 19:34:32 10° ESE visible
29 Nov - 21:23:08 10° WSW 21:31:32 34° S 21:37:28 10° ESE visible
29 Nov - 23:28:44 10° WSW 23:34:29 23° SSW 23:38:55 10° SSE night (unlit)
30 Nov - 16:46:44 10° SSE 16:51:13 13° SE 16:55:17 10° ESE visible
30 Nov - 18:45:35 10° SSW 18:54:58 27° SSE 19:02:01 10° ESE visible
30 Nov - 20:49:40 10° WSW 20:58:47 35° S 21:05:10 10° ESE visible
30 Nov - 22:55:16 10° WSW 23:01:56 26° SSW 23:06:53 10° SSE visible
01 Dec - 16:14:46 10° SSE 16:18:17 11° SE 16:21:32 10° ESE daylight
01 Dec - 18:12:19 10° SSW 18:22:02 27° SSE 18:29:26 10° ESE visible
01 Dec - 20:16:11 10° WSW 20:25:58 36° S 20:32:48 10° ESE visible
01 Dec - 22:21:46 10° WSW 22:29:20 30° SSW 22:34:47 10° SE visible
02 Dec - 00:29:33 10° WSW 00:31:32 11° SW 00:33:21 10° SSW night (unlit)
02 Dec - 15:44:00 10° SE 15:45:19 10° SE 15:46:37 10° SE daylight
02 Dec - 17:39:06 10° SSW 17:49:02 26° SSE 17:56:46 10° ESE visible
02 Dec - 19:42:40 10° SW 19:53:05 37° S 20:00:25 10° ESE visible
02 Dec - 21:48:14 10° WSW 21:56:39 33° SSW 22:02:38 10° SE visible
02 Dec - 23:55:15 10° WSW 23:59:04 15° SW 00:02:19 10° S night (unlit)
03 Dec - 17:05:58 10° SSW 17:16:00 25° SSE 17:24:01 10° ESE visible
03 Dec - 19:09:08 10° SW 19:20:09 38° S 19:27:58 10° ESE visible
03 Dec - 21:14:39 10° WSW 21:23:56 36° SSW 21:30:25 10° SE visible
03 Dec - 23:21:22 10° WSW 23:26:35 18° SW 23:30:46 10° S visible
04 Dec - 16:32:54 10° SSW 16:42:56 24° SSE 16:51:09 10° ESE visible
04 Dec - 18:35:38 10° SW 18:47:08 38° S 18:55:28 10° ESE visible
04 Dec - 20:41:02 10° WSW 20:51:08 38° S 20:58:08 10° SE visible
04 Dec - 22:47:36 10° WSW 22:54:02 22° SSW 22:58:59 10° SSE visible
05 Dec - 15:59:58 10° S 16:09:50 23° SSE 16:18:11 10° ESE daylight
05 Dec - 18:02:10 10° SW 18:14:05 38° SSE 18:22:54 10° ESE visible
05 Dec - 20:07:24 10° WSW 20:18:15 40° S 20:25:49 10° ESE visible
05 Dec - 22:13:52 10° W 22:21:26 25° SSW 22:27:04 10° SSE visible
06 Dec - 15:27:08 10° S 15:36:44 21° SE 15:45:04 10° ESE daylight
06 Dec - 17:28:44 10° SW 17:40:57 37° SSE 17:50:16 10° ESE visible
06 Dec - 19:33:46 10° WSW 19:45:19 42° S 19:53:25 10° ESE visible
06 Dec - 21:40:08 10° W 21:48:46 29° SSW 21:55:02 10° SSE visible
